Location: *
(49.9853°N, 3.5569°E)
Time: 23:08:07
(UTC+00:00)

Spot 2 Rocket - Pass Details

Date: 22 September 2019
Orbit: 757 x 772 km, 98.6° (Epoch: 17 October)

Event Time Altitude Azimuth Distance (km) Brightness Sun altitude
Exits shadow 19:34:38 31° 91° (E) 1,322 4.2 -18.0°
Maximum altitude 19:35:48 35° 64° (ENE) 1,226 4.2 -18.2°
Drops below altitude 10° 19:40:20 10° 0° (N) 2,300 6.3 -18.9°
Sets 19:42:48 0° 352° (N) 3,230 7.2 -19.2°
